Change the Weather History Date:

Thursday, August 30, 2012

  Actual Average Record
Temperature  
Mean Temperature 82 °F -  
Max Temperature 85 °F 85 °F 95 °F (2005)
Min Temperature 78 °F 75 °F 71 °F (1997)
Cooling Degree Days 16    
Growing Degree Days 32 (Base 50)    
Moisture  
Dew Point 77 °F    
Average Humidity 87    
Maximum Humidity 96    
Minimum Humidity 75    
Precipitation  
Precipitation 0.00 in - - ()
Sea Level Pressure  
Sea Level Pressure 30.05 in    
Wind  
Wind Speed 8 mph (SE)    
Max Wind Speed 13 mph    
Max Gust Speed -    
Visibility 10 miles    
Events      
Averages and records for this station are not official NWS values.
T = Trace of Precipitation, MM = Missing Value Source: NWS Daily Summary

Daily Weather History Graph

Daily Weather History Graph

Search for Another Location

Airport or City:

Trip Planner

Search our weather history database for the weather conditions in past years. The results will help you decide how hot, cold, wet, or windy it might be!

Date:

Astronomy

Aug. 30, 2012 Rise Set
Actual Time 7:00 AM EDT 7:45 PM EDT
Civil Twilight 6:36 AM EDT 8:09 PM EDT
Nautical Twilight 6:07 AM EDT 8:37 PM EDT
Astronomical Twilight 5:39 AM EDT 9:06 PM EDT
Moon 7:01 PM EDT (8/30) 6:00 AM EDT (8/30)
Length of Visible Light 13h 33m
Length of Day
12h 45m
Waxing Gibbous, 99% of the Moon is Illuminated
Aug 30
Waxing Gibbous
Aug 31
Full
Sep 8
Last Quarter
Sep 15
New
Sep 22
First Quarter

Hourly Weather History & Observations

Time (EDT) Temp. Heat Index Dew Point Humidity Pressure Visibility Wind Dir Wind Speed Gust Speed Precip Events Conditions
12:55 AM 79.7 °F - 77.9 °F 94% 30.01 in 10.0 mi SE 5.8 mph - N/A   Partly Cloudy
1:55 AM 79.3 °F - 78.1 °F 96% 30.00 in 10.0 mi SE 6.9 mph - N/A   Partly Cloudy
2:55 AM 79.5 °F - 78.3 °F 96% 29.98 in 10.0 mi SSE 9.2 mph - N/A   Clear
3:55 AM 79.5 °F - 78.3 °F 96% 29.98 in 10.0 mi SSE 9.2 mph - N/A   Clear
4:55 AM 79.3 °F - 77.9 °F 95% 29.98 in 10.0 mi SSE 8.1 mph - N/A   Clear
5:55 AM 79.2 °F - 77.9 °F 96% 29.99 in 10.0 mi South 8.1 mph - N/A   Clear
6:55 AM 78.6 °F - 77.2 °F 95% 30.01 in 10.0 mi South 8.1 mph - N/A   Clear
7:55 AM 79.2 °F - 76.8 °F 92% 30.02 in 10.0 mi South 5.8 mph - N/A   Clear
8:25 AM 80.6 °F 87.1 °F 77.0 °F 89% 30.03 in 10.0 mi South 8.1 mph - N/A   Light Drizzle
8:30 AM 80.6 °F 87.1 °F 77.0 °F 89% 30.04 in 10.0 mi South 5.8 mph - N/A   Clear
8:31 AM 80.6 °F 87.1 °F 77.0 °F 89% 30.04 in 10.0 mi South 5.8 mph - N/A   Light Drizzle
8:35 AM 80.6 °F 87.1 °F 77.0 °F 89% 30.04 in 10.0 mi South 6.9 mph - N/A   Clear
8:55 AM 81.5 °F 88.7 °F 76.5 °F 85% 30.04 in 10.0 mi SSW 6.9 mph - 0.00 in   Clear
9:55 AM 83.1 °F 91.6 °F 76.3 °F 80% 30.06 in 10.0 mi SSW 6.9 mph - N/A   Clear
10:55 AM 84.2 °F 94.1 °F 77.0 °F 79% 30.07 in 10.0 mi East 6.9 mph - N/A   Clear
11:55 AM 83.7 °F 93.8 °F 77.5 °F 82% 30.08 in 10.0 mi ESE 8.1 mph - N/A   Clear
12:55 PM 84.4 °F 95.0 °F 77.5 °F 80% 30.09 in 10.0 mi ESE 6.9 mph - N/A   Clear
1:55 PM 85.1 °F 96.7 °F 77.9 °F 79% 30.09 in 10.0 mi East 9.2 mph - N/A   Clear
2:55 PM 85.1 °F 96.2 °F 77.4 °F 78% 30.08 in 10.0 mi ESE 9.2 mph - N/A   Clear
3:55 PM 85.6 °F 96.4 °F 76.8 °F 75% 30.07 in 10.0 mi ESE 10.4 mph - N/A   Clear
4:55 PM 85.1 °F 96.7 °F 78.1 °F 79% 30.06 in 10.0 mi ESE 12.7 mph - N/A   Clear
5:55 PM 83.8 °F 94.7 °F 78.1 °F 83% 30.06 in 10.0 mi East 10.4 mph - N/A   Clear
6:55 PM 83.1 °F 92.6 °F 77.5 °F 83% 30.06 in 10.0 mi East 10.4 mph - N/A   Clear
7:55 PM 82.0 °F 89.9 °F 76.8 °F 84% 30.08 in 10.0 mi ESE 10.4 mph - N/A   Clear
8:55 PM 81.9 °F 89.5 °F 76.6 °F 84% 30.10 in 10.0 mi ESE 9.2 mph - N/A   Clear
9:55 PM 81.5 °F 89.0 °F 77.0 °F 86% 30.13 in 10.0 mi East 6.9 mph - N/A   Clear
10:55 PM 81.3 °F 89.0 °F 77.5 °F 88% 30.13 in 10.0 mi ESE 9.2 mph - N/A   Clear
11:55 PM 80.8 °F 87.6 °F 77.4 °F 89% 30.13 in 10.0 mi ESE 6.9 mph - N/A   Clear